[[{"header":{"parameterUnit":"m.s-1","parameterCategory":1,"la1":30.2991,"la2":30.254,"lo1":-89.0895,"lo2":-89.0444,"dy":0.0017,"dx":0.0017,"nx":28,"ny":28,"refTime":"2024-11-27T03:00:00:Z","depth":0,"parameterNumber":2,"parameterNumberName":"U-component_of_WINDS"},"data":[0,0,0,0,0,0,0,0,0,0,0,0,0,0,0,0,0,0,0,0,0,0,0,0,0,0,0,0,0,0,0,0,0,0,0,0,0,0,0,0,0,0,0,0,0,0,0,0,0,0,0,0,0,0,0,0,0,0,-2.0591,-2.0592,0,-2.0684,-2.0685,-2.0686,-2.0689,-2.0687,-2.0686,-2.0685,-2.0781,-2.0784,-2.0788,0,0,0,0,0,0,0,0,0,0,0,0,0,-2.0417,-2.042,-2.0591,-2.0592,-2.0593,-2.0684,-2.0685,-2.0686,-2.0689,-2.0687,-2.0686,-2.0685,-2.078,-2.0784,-2.0788,0,0,0,0,0,0,0,0,0,0,0,0,0,-2.0499,-2.0421,-2.0591,-2.0605,-2.0608,-2.0684,-2.0685,-2.0687,-2.0689,-2.0687,-2.0686,-2.0684,-2.0778,-2.0784,-2.0789,-2.0857,0,0,-2.0805,-2.0808,0,0,0,0,0,0,0,0,-2.0495,-2.0506,-2.0602,-2.0605,-2.0607,-2.0673,-2.0659,-2.0744,-2.0689,-2.0658,-2.0685,-2.0683,-2.0746,-2.0754,-2.0776,-2.0861,-2.0865,-2.0806,-2.0809,-2.0812,-2.0813,0,0,0,0,0,0,0,-2.0489,-2.0502,-2.0628,-2.0604,-2.0607,-2.0608,-2.0618,-2.0675,-2.0711,-2.0661,-2.0661,-2.0672,-2.0747,-2.077,-2.0778,-2.0867,-2.0806,-2.0811,-2.0814,-2.0816,-2.1013,-2.1015,0,0,0,0,0,0,-2.048,-2.0497,-2.0625,-2.0631,-2.0546,-2.0612,-2.0623,-2.0654,-2.071,-2.0717,-2.0673,-2.0672,-2.0762,-2.0771,-2.0781,-2.0864,-2.0812,-2.0817,-2.082,-2.1011,-2.1013,-2.1016,0,0,0,0,0,0,-2.0476,-2.0492,-2.0621,-2.0564,-2.0581,-2.0617,-2.0651,-2.0656,-2.0679,-2.072,-2.0726,-2.069,-2.0761,-2.0774,-2.0838,-2.0867,-2.0819,-2.0824,-2.1009,-2.1012,-2.1014,-2.103,0,0,0,0,0,0,-2.0471,-2.049,-2.0516,-2.0565,-2.0584,-2.0676,-2.0653,-2.0659,-2.0688,-2.0687,-2.0737,-2.0744,-2.0761,-2.083,-2.0843,-2.0874,-2.0828,-2.1006,-2.101,-2.1014,-2.1027,-2.1034,-2.1039,0,0,0,0,0,-2.0465,-2.0517,-2.0517,-2.0533,-2.0616,-2.0678,-2.0688,-2.0707,-2.0691,-2.0717,-2.0743,-2.0742,-2.0862,-2.0836,-2.0852,-2.0884,-2.1004,-2.1009,-2.1013,-2.1025,-2.1032,-2.1039,0,0,0,0,0,0,-2.0471,-2.0523,-2.0524,-2.0593,-2.0631,-2.0678,-2.0711,-2.0714,-2.0757,-2.0754,-2.0775,-2.0786,-2.085,-2.0874,-2.0844,-2.0953,-2.0932,-2.0939,-2.0935,-2.0943,-2.0948,-2.0941,-2.0833,0,0,0,0,0,-2.048,-2.0525,-2.0569,-2.0625,-2.0644,-2.0675,-2.0702,-2.0713,-2.0753,-2.0769,-2.08,-2.0839,-2.0885,-2.0915,-2.0961,-2.1031,-2.1042,-2.1062,-2.1067,-2.1072,-2.1078,-2.1117,-2.1126,-2.103,-2.103,-2.103,0,0,-2.0499,-2.0534,-2.0561,-2.0627,-2.0657,-2.0704,-2.0688,-2.0738,-2.0772,-2.0776,-2.0839,-2.0863,-2.0908,-2.0976,-2.1007,-2.0998,-2.1107,-2.1077,-2.1081,-2.1084,-2.1123,-2.1132,-2.114,-2.1033,-2.1033,-2.1032,0,0,-2.0558,-2.0589,-2.0639,-2.067,-2.0716,-2.0737,-2.0749,-2.0796,-2.0812,-2.0875,-2.0879,-2.0921,-2.1001,-2.1033,-2.106,-2.1132,-2.1132,-2.1146,-2.1176,-2.1214,-2.1221,-2.1228,-2.1254,-2.1263,-2.1153,-2.1153,-2.1153,0,-2.0576,-2.0646,-2.0665,-2.0714,-2.0744,-2.075,-2.0801,-2.083,-2.0889,-2.0909,-2.0898,-2.0999,-2.1029,-2.1105,-2.1122,-2.1144,-2.1159,-2.114,-2.1219,-2.1226,-2.1232,-2.1257,-2.1266,-2.1154,-2.1154,-2.1154,-2.1153,0,-2.0666,-2.0714,-2.0749,-2.0806,-2.0839,-2.0889,-2.0916,-2.0948,-2.0957,-2.0978,-2.1043,-2.108,-2.1133,-2.1152,-2.1161,-2.1229,-2.1222,-2.1214,-2.1193,-2.1243,-2.1266,-2.1275,-2.1156,-2.1155,-2.1155,-2.1155,0,0,-2.0729,-2.0796,-2.0809,-2.0834,-2.0887,-2.0925,-2.0976,-2.1027,-2.1054,-2.1095,-2.1138,-2.1206,-2.12,-2.123,-2.1243,-2.1277,-2.1331,-2.1265,-2.1267,-2.1276,-2.1409,-2.1413,-2.1424,-2.1333,-2.1335,-2.1336,-2.1405,0,-2.0793,-2.0883,-2.0902,-2.098,-2.1025,-2.1032,-2.1077,-2.1114,-2.1136,-2.1178,-2.1202,-2.125,-2.1238,-2.1257,-2.129,-2.1317,-2.1358,-2.1313,-2.1373,-2.1375,-2.136,-2.1436,-2.1441,-2.1504,-2.1414,-2.1416,-2.1417,0,-2.0879,-2.0922,-2.1004,-2.1051,-2.107,-2.111,-2.1159,-2.1199,-2.1242,-2.1256,-2.129,-2.1299,-2.1353,-2.133,-2.1405,-2.1373,-2.14,-2.1417,-2.142,-2.1425,-2.1398,-2.1443,-2.1524,-2.1533,-2.1432,-2.143,-2.1429,0,-2.0916,-2.0995,-2.1054,-2.1076,-2.1132,-2.116,-2.1185,-2.1226,-2.1256,-2.1299,-2.1319,-2.1368,-2.1395,-2.1433,-2.1456,-2.1437,-2.1529,-2.1507,-2.1541,-2.1541,-2.1559,-2.1558,-2.1645,-2.1578,-2.1578,-2.1577,-2.1577,0,-2.0985,-2.1035,-2.1071,-2.1108,-2.1164,-2.1186,-2.1242,-2.1267,-2.1303,-2.1345,-2.1355,-2.1394,-2.1422,-2.1465,-2.1483,-2.1542,-2.1555,-2.1567,-2.1571,-2.1566,-2.1564,-2.1582,-2.1578,-2.158,-2.1579,-2.1579,-2.1579,0,-2.1035,-2.1062,-2.1127,-2.1175,-2.1188,-2.1228,-2.1269,-2.1305,-2.1328,-2.1381,-2.1394,-2.143,-2.1481,-2.1508,-2.1573,-2.1585,-2.1651,-2.1653,-2.1636,-2.1638,-2.167,-2.1666,-2.1772,-2.1786,-2.171,-2.171,-2.1711,0,-2.1076,-2.1115,-2.1167,-2.1196,-2.1221,-2.1267,-2.1298,-2.1322,-2.1353,-2.1406,-2.1435,-2.1487,-2.153,-2.1612,-2.1644,-2.1694,-2.1696,-2.173,-2.1704,-2.1697,-2.1696,-2.1693,-2.1697,-2.1734,-2.1735,-2.1735,-2.1736,0,-2.1147,-2.1158,-2.1202,-2.1251,-2.1287,-2.1327,-2.1366,-2.1389,-2.1419,-2.1455,-2.1507,-2.154,-2.1606,-2.1658,-2.171,-2.1736,-2.1741,-2.1744,-2.1754,-2.1749,-2.1737,-2.1743,-2.1648,-2.1741,-2.1741,-2.174,-2.174,-2.174,-2.1194,-2.1228,-2.1271,-2.1319,-2.1351,-2.1388,-2.1424,-2.1451,-2.1496,-2.1551,-2.1562,-2.1618,-2.1661,-2.1731,-2.1759,-2.1803,-2.1796,-2.1812,-2.1815,-2.1818,-2.1819,-2.1731,-2.1813,-2.1813,-2.1813,-2.1813,-2.1813,0,-2.1264,-2.1292,-2.1336,-2.1391,-2.1429,-2.1431,-2.1475,-2.1507,-2.1555,-2.1595,-2.1637,-2.1698,-2.1748,-2.1784,-2.1836,-2.1864,-2.1868,-2.1877,-2.1874,-2.188,-2.1823,-2.1809,-2.1873,-2.1873,-2.1873,-2.1873,-2.1873,-2.1873,-2.1305,-2.1364,-2.138,-2.1455,-2.1483,-2.1537,-2.1562,-2.1596,-2.1628,-2.1695,-2.1737,-2.176,-2.1799,-2.1853,-2.19,-2.1909,-2.1927,-2.1936,-2.1945,-2.1891,-2.1884,-2.1878,-2.1865,-2.194,-2.194,-2.1999,-2.2,-2.2]},{"header":{"parameterUnit":"m.s-1","parameterCategory":1,"la1":30.2991,"la2":30.254,"lo1":-89.0895,"lo2":-89.0444,"dy":0.0017,"dx":0.0017,"nx":28,"ny":28,"refTime":"2024-11-27T03:00:00:Z","depth":0,"parameterNumber":3,"parameterNumberName":"V-component_of_WINDS"},"data":[0,0,0,0,0,0,0,0,0,0,0,0,0,0,0,0,0,0,0,0,0,0,0,0,0,0,0,0,0,0,0,0,0,0,0,0,0,0,0,0,0,0,0,0,0,0,0,0,0,0,0,0,0,0,0,0,0,0,0.7438,0.7438,0,0.7381,0.738,0.7379,0.7318,0.7317,0.7316,0.7315,0.7257,0.7256,0.7255,0,0,0,0,0,0,0,0,0,0,0,0,0,0.7496,0.7495,0.7439,0.7438,0.7437,0.7381,0.738,0.7379,0.7318,0.7317,0.7316,0.7315,0.7257,0.7256,0.7255,0,0,0,0,0,0,0,0,0,0,0,0,0,0.7458,0.7495,0.7439,0.74,0.7396,0.7381,0.738,0.7379,0.7318,0.7317,0.7315,0.7314,0.7257,0.7256,0.7255,0.7274,0,0,0.7251,0.7251,0,0,0,0,0,0,0,0,0.746,0.7456,0.7406,0.7402,0.7398,0.7355,0.7379,0.7344,0.7318,0.7348,0.7315,0.7314,0.729,0.7286,0.7279,0.7272,0.7269,0.7251,0.7251,0.725,0.725,0,0,0,0,0,0,0,0.7463,0.7458,0.7416,0.7405,0.74,0.7385,0.7378,0.7372,0.7327,0.7345,0.734,0.7334,0.7288,0.728,0.7277,0.7268,0.7251,0.725,0.725,0.7249,0.7273,0.7274,0,0,0,0,0,0,0.7471,0.7461,0.7417,0.7414,0.7426,0.7385,0.7377,0.737,0.7327,0.7319,0.7335,0.7332,0.7282,0.7278,0.7274,0.7294,0.725,0.7249,0.7249,0.7272,0.7274,0.7275,0,0,0,0,0,0,0.7473,0.7468,0.742,0.7436,0.7429,0.7386,0.7378,0.737,0.7361,0.732,0.7312,0.7335,0.7281,0.7276,0.7275,0.7291,0.7249,0.7248,0.727,0.7272,0.7274,0.7333,0,0,0,0,0,0,0.7475,0.7469,0.7476,0.7437,0.7428,0.7421,0.7379,0.7369,0.736,0.7354,0.7318,0.731,0.728,0.7277,0.7273,0.7288,0.7247,0.7269,0.7271,0.7274,0.7329,0.7337,0.7343,0,0,0,0,0,0.7477,0.7495,0.7477,0.7472,0.7436,0.7422,0.7417,0.7382,0.7361,0.7368,0.7341,0.7311,0.729,0.7277,0.7273,0.7288,0.7268,0.7271,0.7273,0.7326,0.7335,0.7343,0,0,0,0,0,0,0.7538,0.7489,0.7468,0.7474,0.7453,0.7412,0.7419,0.7392,0.7376,0.7372,0.7328,0.7321,0.7324,0.7306,0.7293,0.7304,0.7274,0.7277,0.7316,0.7324,0.7331,0.7335,0.7246,0,0,0,0,0,0.7552,0.7545,0.7503,0.7512,0.7502,0.7463,0.7455,0.743,0.7406,0.7397,0.737,0.7348,0.7336,0.7329,0.7316,0.7326,0.7317,0.7335,0.7341,0.7347,0.735,0.7353,0.736,0.7285,0.7285,0.7284,0,0,0.7581,0.7554,0.7552,0.7523,0.7504,0.7497,0.7455,0.7451,0.7445,0.7396,0.7393,0.7372,0.7345,0.7349,0.735,0.7334,0.7368,0.7351,0.7356,0.7355,0.7357,0.7364,0.737,0.7287,0.7286,0.7286,0,0,0.7631,0.7609,0.7614,0.7595,0.7566,0.7539,0.7541,0.7504,0.7488,0.7484,0.7447,0.744,0.742,0.7402,0.739,0.7432,0.7404,0.7429,0.7465,0.7469,0.7475,0.748,0.7494,0.75,0.7432,0.7432,0.7432,0,0.767,0.7659,0.762,0.7617,0.7606,0.756,0.7565,0.7549,0.7517,0.751,0.7492,0.7466,0.7445,0.7444,0.7455,0.7447,0.7446,0.7433,0.7477,0.7481,0.7486,0.7499,0.7504,0.7435,0.7435,0.7435,0.7434,0,0.7709,0.7702,0.7709,0.7679,0.7669,0.767,0.7631,0.7625,0.76,0.7575,0.7572,0.7544,0.7524,0.7522,0.7498,0.7518,0.7509,0.7485,0.7454,0.7497,0.7508,0.7513,0.744,0.7439,0.7438,0.7437,0,0,0.7796,0.7744,0.7747,0.7732,0.7696,0.769,0.7689,0.7669,0.7664,0.7644,0.7642,0.7626,0.7603,0.759,0.7563,0.7567,0.7601,0.7542,0.7541,0.7554,0.762,0.7638,0.7645,0.7582,0.7583,0.7584,0.7622,0,0.7838,0.7833,0.7798,0.7803,0.7795,0.7752,0.7751,0.7729,0.7706,0.7696,0.767,0.7659,0.7631,0.7622,0.7624,0.7597,0.7614,0.7593,0.7579,0.7579,0.7587,0.7651,0.767,0.7708,0.7627,0.7628,0.7628,0,0.7888,0.787,0.7874,0.7837,0.7833,0.7833,0.7811,0.7802,0.7776,0.7759,0.7744,0.7714,0.771,0.7681,0.7675,0.7662,0.7654,0.764,0.764,0.7637,0.7606,0.765,0.7719,0.7725,0.7635,0.7635,0.7634,0,0.795,0.7927,0.7926,0.7915,0.7872,0.7873,0.7855,0.7828,0.7818,0.7799,0.7792,0.7774,0.7764,0.775,0.7715,0.7698,0.7712,0.7681,0.7698,0.7699,0.7703,0.7703,0.7772,0.7699,0.7698,0.7698,0.7698,0,0.8001,0.8005,0.7953,0.7953,0.7956,0.7915,0.792,0.7898,0.7874,0.7868,0.7829,0.7825,0.778,0.777,0.7743,0.7742,0.7737,0.7723,0.7716,0.7726,0.7728,0.772,0.7717,0.77,0.7699,0.7699,0.7699,0,0.8071,0.8036,0.8032,0.7992,0.7982,0.7986,0.7952,0.795,0.7924,0.7917,0.7913,0.7873,0.786,0.7824,0.7801,0.7783,0.7789,0.7775,0.7798,0.7793,0.7811,0.781,0.7877,0.7884,0.7807,0.7808,0.7809,0,0.8106,0.8108,0.8068,0.8061,0.8045,0.8035,0.8024,0.7985,0.7975,0.7945,0.7947,0.793,0.7915,0.7895,0.7864,0.7846,0.7832,0.7856,0.7829,0.7839,0.7831,0.7831,0.7831,0.7863,0.7864,0.7864,0.7865,0,0.8171,0.8154,0.814,0.812,0.8109,0.8091,0.8072,0.8069,0.8024,0.8015,0.8001,0.7989,0.7966,0.7949,0.7927,0.7908,0.7879,0.7874,0.7877,0.7887,0.79,0.7893,0.7814,0.7873,0.7872,0.7871,0.7871,0.7871,0.8224,0.8223,0.8195,0.8181,0.8162,0.8144,0.814,0.8114,0.8101,0.8079,0.8056,0.8044,0.8017,0.7983,0.7967,0.7957,0.7941,0.7946,0.7947,0.7948,0.7953,0.7902,0.7952,0.7952,0.7952,0.7952,0.7951,0,0.8287,0.8266,0.8254,0.8227,0.8216,0.819,0.8166,0.8159,0.8149,0.8126,0.8111,0.8095,0.8078,0.8046,0.8027,0.8025,0.8011,0.8021,0.802,0.8016,0.7968,0.7967,0.8032,0.8032,0.8032,0.8032,0.8032,0.8032,0.8318,0.8316,0.8295,0.8283,0.8262,0.8249,0.8238,0.8222,0.8203,0.8186,0.8173,0.8151,0.8124,0.8103,0.8087,0.8077,0.8072,0.8086,0.8073,0.8028,0.802,0.8013,0.8012,0.8086,0.8086,0.8122,0.8123,0.8123]}]]